Location: Unspecified
(0.0000°N, 0.0000°E)
Time: 18:49:17
(UTC+00:00)

Vanguard 1 Rocket - Pass Details

Date: 22 November 2019
Orbit: 650 x 4226 km, 34.3° (Epoch: 05 December)

Event Time Altitude Azimuth Distance (km) Brightness Sun altitude
Rises 12:46:53 0° 274° (W) 5,734 11.7 65.0°
Reaches altitude 10° 12:50:34 10° 265° (W) 5,166 11.6 64.4°
Maximum altitude 13:05:28 36° 204° (SSW) 4,718 12.3 62.0°
Drops below altitude 10° 13:27:49 10° 143° (SE) 7,434 12.2 58.0°
Sets 13:34:55 0° 135° (SE) 8,409 12.3 56.6°
